Time,TemperatureF,DewpointF,PressureIn,WindDirection,WindDirectionDegrees,WindSpeedMPH,WindSpeedGustMPH,Humidity,HourlyPrecipIn,Conditions,Clouds,dailyrainin,SoftwareType,DateUTC
2013-02-21 00:00:00,27.3,19.5,30.19,SW,225,0.0,0.0,72,0.00,CLR,,0.00,WeatherDisplay:10.37,2013-02-21 05:00:00,
2013-02-21 00:05:00,27.5,19.7,30.18,North,0,1.1,1.3,72,0.00,CLR,,0.00,WeatherDisplay:10.37,2013-02-21 05:05:00,
2013-02-21 00:10:00,27.5,19.7,30.18,NE,45,2.3,2.3,72,0.00,CLR,,0.00,WeatherDisplay:10.37,2013-02-21 05:10:00,
2013-02-21 00:15:00,27.7,19.8,30.18,NE,45,1.1,0.0,72,0.00,CLR,,0.00,WeatherDisplay:10.37,2013-02-21 05:15:00,
2013-02-21 00:20:00,27.9,20.0,30.18,NW,315,1.1,0.0,72,0.00,CLR,,0.00,WeatherDisplay:10.37,2013-02-21 05:20:00,
2013-02-21 00:25:00,28.0,20.5,30.18,SW,225,0.0,0.0,73,0.00,CLR,,0.00,WeatherDisplay:10.37,2013-02-21 05:25:00,
2013-02-21 00:30:00,28.2,20.7,30.18,NE,45,4.4,4.4,73,0.00,CLR,,0.00,WeatherDisplay:10.37,2013-02-21 05:30:00,
2013-02-21 00:35:00,28.6,22.6,30.18,NE,45,1.1,0.0,78,0.00,CLR,,0.00,WeatherDisplay:10.37,2013-02-21 05:35:00,
2013-02-21 00:40:00,29.1,22.8,30.18,North,0,5.8,5.8,77,0.00,CLR,,0.00,WeatherDisplay:10.37,2013-02-21 05:40:00,
2013-02-21 00:45:00,29.5,22.5,30.17,NE,45,1.1,1.3,75,0.00,CLR,,0.00,WeatherDisplay:10.37,2013-02-21 05:45:00,
2013-02-21 00:50:00,29.5,22.5,30.18,SW,225,2.7,2.7,75,0.00,CLR,,0.00,WeatherDisplay:10.37,2013-02-21 05:50:00,
2013-02-21 00:56:00,29.5,21.9,30.19,North,0,2.3,0.0,73,0.00,CLR,,0.00,WeatherDisplay:10.37,2013-02-21 05:56:00,
2013-02-21 01:01:00,29.5,21.9,30.19,North,0,0.0,0.0,73,0.00,CLR,,0.00,WeatherDisplay:10.37,2013-02-21 06:01:00,
2013-02-21 01:06:00,29.5,21.9,30.18,North,0,0.0,0.0,73,0.00,CLR,,0.00,WeatherDisplay:10.37,2013-02-21 06:06:00,
2013-02-21 01:11:00,28.8,21.2,30.18,North,0,4.6,4.6,73,0.00,CLR,,0.00,WeatherDisplay:10.37,2013-02-21 06:11:00,
2013-02-21 01:16:00,28.4,21.2,30.18,NE,45,2.3,2.3,74,0.00,CLR,,0.00,WeatherDisplay:10.37,2013-02-21 06:16:00,
2013-02-21 01:21:00,28.4,21.2,30.17,North,0,4.6,4.6,74,0.00,CLR,,0.00,WeatherDisplay:10.37,2013-02-21 06:21:00,
2013-02-21 01:26:00,28.4,20.8,30.17,North,0,2.3,2.3,73,0.00,CLR,,0.00,WeatherDisplay:10.37,2013-02-21 06:26:00,
2013-02-21 01:31:00,28.2,19.3,30.17,SW,225,0.0,0.0,69,0.00,CLR,,0.00,WeatherDisplay:10.37,2013-02-21 06:31:00,
2013-02-21 01:36:00,28.2,19.7,30.18,North,0,2.7,0.0,70,0.00,CLR,,0.00,WeatherDisplay:10.37,2013-02-21 06:36:00,
2013-02-21 01:41:00,28.2,19.7,30.18,West,270,2.3,2.3,70,0.00,CLR,,0.00,WeatherDisplay:10.37,2013-02-21 06:41:00,
2013-02-21 01:46:00,28.2,19.7,30.19,NE,45,2.3,2.3,70,0.00,CLR,,0.00,WeatherDisplay:10.37,2013-02-21 06:46:00,
2013-02-21 01:51:00,28.0,19.8,30.18,North,0,2.3,2.3,71,0.00,CLR,,0.00,WeatherDisplay:10.37,2013-02-21 06:51:00,
2013-02-21 01:56:00,28.0,19.5,30.19,West,270,0.0,0.0,70,0.00,CLR,,0.00,WeatherDisplay:10.37,2013-02-21 06:56:00,
2013-02-21 02:01:00,28.0,19.5,30.19,SW,225,1.1,0.0,70,0.00,CLR,,0.00,WeatherDisplay:10.37,2013-02-21 07:01:00,
2013-02-21 02:06:00,28.0,19.5,30.19,SW,225,0.0,0.0,70,0.00,CLR,,0.00,WeatherDisplay:10.37,2013-02-21 07:06:00,
2013-02-21 02:11:00,28.0,19.5,30.19,East,90,0.0,0.0,70,0.00,CLR,,0.00,WeatherDisplay:10.37,2013-02-21 07:11:00,
2013-02-21 02:16:00,28.0,19.5,30.19,NW,315,0.0,0.0,70,0.00,CLR,,0.00,WeatherDisplay:10.37,2013-02-21 07:16:00,
2013-02-21 02:21:00,28.0,19.5,30.19,NW,315,0.0,0.0,70,0.00,CLR,,0.00,WeatherDisplay:10.37,2013-02-21 07:21:00,
2013-02-21 02:26:00,27.7,19.2,30.18,North,0,2.3,0.0,70,0.00,CLR,,0.00,WeatherDisplay:10.37,2013-02-21 07:26:00,
2013-02-21 02:31:00,27.5,19.0,30.17,North,0,0.0,0.0,70,0.00,CLR,,0.00,WeatherDisplay:10.37,2013-02-21 07:31:00,
2013-02-21 02:36:00,27.3,18.8,30.17,SE,135,4.6,4.6,70,0.00,CLR,,0.00,WeatherDisplay:10.37,2013-02-21 07:36:00,
2013-02-21 02:41:00,27.3,19.2,30.17,SW,225,1.1,0.0,71,0.00,CLR,,0.00,WeatherDisplay:10.37,2013-02-21 07:41:00,
2013-02-21 02:46:00,27.3,19.2,30.17,North,0,0.0,0.0,71,0.00,CLR,,0.00,WeatherDisplay:10.37,2013-02-21 07:46:00,
2013-02-21 02:51:00,27.0,18.8,30.17,NW,315,0.0,0.0,71,0.00,CLR,,0.00,WeatherDisplay:10.37,2013-02-21 07:51:00,
2013-02-21 02:56:00,27.0,18.8,30.18,NW,315,0.0,0.0,71,0.00,CLR,,0.00,WeatherDisplay:10.37,2013-02-21 07:56:00,
2013-02-21 03:01:00,26.8,18.6,30.19,NW,315,0.0,0.0,71,0.00,CLR,,0.00,WeatherDisplay:10.37,2013-02-21 08:01:00,
2013-02-21 03:06:00,27.0,18.8,30.19,NNW,338,0.0,0.0,71,0.00,CLR,,0.00,WeatherDisplay:10.37,2013-02-21 08:06:00,
2013-02-21 03:11:00,26.8,18.6,30.19,NW,315,0.0,0.0,71,0.00,CLR,,0.00,WeatherDisplay:10.37,2013-02-21 08:11:00,
2013-02-21 03:16:00,27.0,18.8,30.19,North,0,2.7,2.7,71,0.00,CLR,,0.00,WeatherDisplay:10.37,2013-02-21 08:16:00,
2013-02-21 03:21:00,27.0,18.8,30.19,NW,315,0.0,0.0,71,0.00,CLR,,0.00,WeatherDisplay:10.37,2013-02-21 08:21:00,
2013-02-21 03:26:00,27.0,18.8,30.18,North,0,4.6,4.6,71,0.00,CLR,,0.00,WeatherDisplay:10.37,2013-02-21 08:26:00,
2013-02-21 03:31:00,27.0,19.1,30.18,NW,315,2.3,0.0,72,0.00,CLR,,0.00,WeatherDisplay:10.37,2013-02-21 08:31:00,
2013-02-21 03:36:00,27.1,19.3,30.18,North,0,4.6,4.6,72,0.00,CLR,,0.00,WeatherDisplay:10.37,2013-02-21 08:36:00,
2013-02-21 03:41:00,27.3,19.2,30.18,North,0,2.3,0.0,71,0.00,CLR,,0.00,WeatherDisplay:10.37,2013-02-21 08:41:00,
2013-02-21 03:46:00,27.5,19.3,30.18,South,180,0.0,0.0,71,0.00,CLR,,0.00,WeatherDisplay:10.37,2013-02-21 08:46:00,
2013-02-21 03:51:00,27.5,19.3,30.18,North,0,0.0,0.0,71,0.00,CLR,,0.00,WeatherDisplay:10.37,2013-02-21 08:51:00,
2013-02-21 03:56:00,27.7,19.5,30.18,SW,225,1.1,0.0,71,0.00,CLR,,0.00,WeatherDisplay:10.37,2013-02-21 08:56:00,
2013-02-21 04:01:00,28.0,19.8,30.18,North,0,0.0,0.0,71,0.00,CLR,,0.00,WeatherDisplay:10.37,2013-02-21 09:01:00,
2013-02-21 04:06:00,28.2,20.0,30.18,SE,135,2.3,0.0,71,0.00,CLR,,0.00,WeatherDisplay:10.37,2013-02-21 09:06:00,
2013-02-21 04:11:00,28.6,21.3,30.18,NW,315,2.3,2.7,74,0.00,CLR,,0.00,WeatherDisplay:10.37,2013-02-21 09:11:00,
2013-02-21 04:16:00,28.8,21.5,30.18,North,0,4.6,4.6,74,0.00,CLR,,0.00,WeatherDisplay:10.37,2013-02-21 09:16:00,
2013-02-21 04:21:00,28.6,21.3,30.17,North,0,2.3,2.3,74,0.00,CLR,,0.00,WeatherDisplay:10.37,2013-02-21 09:21:00,
2013-02-21 04:26:00,28.4,21.5,30.18,North,0,1.1,0.0,75,0.00,CLR,,0.00,WeatherDisplay:10.37,2013-02-21 09:26:00,
2013-02-21 04:31:00,28.2,20.0,30.17,North,0,4.6,4.6,71,0.00,CLR,,0.00,WeatherDisplay:10.37,2013-02-21 09:31:00,
2013-02-21 04:36:00,28.0,19.8,30.17,North,0,4.6,4.6,71,0.00,CLR,,0.00,WeatherDisplay:10.37,2013-02-21 09:36:00,
2013-02-21 04:41:00,27.9,20.0,30.17,North,0,4.6,4.6,72,0.00,CLR,,0.00,WeatherDisplay:10.37,2013-02-21 09:41:00,
2013-02-21 04:46:00,27.9,20.0,30.17,North,0,5.8,5.8,72,0.00,CLR,,0.00,WeatherDisplay:10.37,2013-02-21 09:46:00,
2013-02-21 04:51:00,28.0,19.8,30.18,West,270,0.0,0.0,71,0.00,CLR,,0.00,WeatherDisplay:10.37,2013-02-21 09:51:00,
2013-02-21 04:56:00,27.9,19.7,30.18,NW,315,2.3,0.0,71,0.00,CLR,,0.00,WeatherDisplay:10.37,2013-02-21 09:56:00,
2013-02-21 05:01:00,27.9,19.7,30.18,North,0,2.3,2.3,71,0.00,CLR,,0.00,WeatherDisplay:10.37,2013-02-21 10:01:00,
2013-02-21 05:06:00,27.7,19.5,30.17,NE,45,2.3,4.4,71,0.00,CLR,,0.00,WeatherDisplay:10.37,2013-02-21 10:06:00,
2013-02-21 05:11:00,27.9,19.7,30.17,North,0,4.6,0.0,71,0.00,CLR,,0.00,WeatherDisplay:10.37,2013-02-21 10:11:00,
2013-02-21 05:16:00,27.9,19.7,30.18,North,0,2.3,2.3,71,0.00,CLR,,0.00,WeatherDisplay:10.37,2013-02-21 10:16:00,
2013-02-21 05:21:00,27.7,19.5,30.18,North,0,4.6,4.6,71,0.00,CLR,,0.00,WeatherDisplay:10.37,2013-02-21 10:21:00,
2013-02-21 05:26:00,27.7,19.5,30.18,NW,315,5.8,0.0,71,0.00,CLR,,0.00,WeatherDisplay:10.37,2013-02-21 10:26:00,
2013-02-21 05:31:00,27.9,19.7,30.18,North,0,4.6,4.6,71,0.00,CLR,,0.00,WeatherDisplay:10.37,2013-02-21 10:31:00,
2013-02-21 05:36:00,28.0,19.8,30.18,North,0,0.0,1.3,71,0.00,CLR,,0.00,WeatherDisplay:10.37,2013-02-21 10:36:00,
2013-02-21 05:41:00,27.9,19.7,30.18,North,0,5.8,5.8,71,0.00,CLR,,0.00,WeatherDisplay:10.37,2013-02-21 10:41:00,
2013-02-21 05:46:00,27.9,19.7,30.18,North,0,4.6,4.6,71,0.00,CLR,,0.00,WeatherDisplay:10.37,2013-02-21 10:46:00,
2013-02-21 05:51:00,27.9,19.7,30.18,North,0,4.6,4.6,71,0.00,CLR,,0.00,WeatherDisplay:10.37,2013-02-21 10:51:00,
2013-02-21 05:56:00,27.7,19.5,30.18,North,0,2.3,2.3,71,0.00,CLR,,0.00,WeatherDisplay:10.37,2013-02-21 10:56:00,
2013-02-21 06:01:00,27.7,19.5,30.19,NE,45,2.3,0.0,71,0.00,CLR,,0.00,WeatherDisplay:10.37,2013-02-21 11:01:00,
2013-02-21 06:06:00,27.7,19.5,30.19,North,0,2.3,0.0,71,0.00,CLR,,0.00,WeatherDisplay:10.37,2013-02-21 11:06:00,
2013-02-21 06:11:00,27.7,19.5,30.19,North,0,0.0,0.0,71,0.00,CLR,,0.00,WeatherDisplay:10.37,2013-02-21 11:11:00,
2013-02-21 06:16:00,27.7,19.5,30.20,East,90,4.6,4.6,71,0.00,CLR,,0.00,WeatherDisplay:10.37,2013-02-21 11:16:00,
2013-02-21 06:21:00,27.9,19.7,30.19,NE,45,2.3,0.0,71,0.00,CLR,,0.00,WeatherDisplay:10.37,2013-02-21 11:21:00,
2013-02-21 06:26:00,27.9,19.7,30.19,NE,45,5.7,5.7,71,0.00,CLR,,0.00,WeatherDisplay:10.37,2013-02-21 11:26:00,
2013-02-21 06:31:00,28.0,19.5,30.19,SE,135,4.6,4.6,70,0.00,CLR,,0.00,WeatherDisplay:10.37,2013-02-21 11:31:00,
2013-02-21 06:36:00,27.7,19.5,30.19,SE,135,2.3,0.0,71,0.00,CLR,,0.00,WeatherDisplay:10.37,2013-02-21 11:36:00,
2013-02-21 06:41:00,27.5,19.3,30.20,SE,135,0.0,0.0,71,0.00,CLR,,0.00,WeatherDisplay:10.37,2013-02-21 11:41:00,
2013-02-21 06:46:00,27.1,19.0,30.19,North,0,1.1,0.0,71,0.00,CLR,,0.00,WeatherDisplay:10.37,2013-02-21 11:46:00,
2013-02-21 06:51:00,26.8,19.0,30.20,NW,315,1.1,0.0,72,0.00,CLR,,0.00,WeatherDisplay:10.37,2013-02-21 11:51:00,
2013-02-21 06:56:00,26.6,18.8,30.21,NE,45,0.0,0.0,72,0.00,CLR,,0.00,WeatherDisplay:10.37,2013-02-21 11:56:00,
2013-02-21 07:01:00,26.6,18.8,30.21,NE,45,0.0,0.0,72,0.00,CLR,,0.00,WeatherDisplay:10.37,2013-02-21 12:01:00,
2013-02-21 07:06:00,26.4,19.3,30.21,NE,45,2.3,0.0,74,0.00,CLR,,0.00,WeatherDisplay:10.37,2013-02-21 12:06:00,
2013-02-21 07:11:00,26.6,19.1,30.20,North,0,1.1,0.0,73,0.00,CLR,,0.00,WeatherDisplay:10.37,2013-02-21 12:11:00,
2013-02-21 07:16:00,26.8,19.3,30.20,West,270,2.3,0.0,73,0.00,CLR,,0.00,WeatherDisplay:10.37,2013-02-21 12:16:00,
2013-02-21 07:21:00,27.0,19.5,30.21,NE,45,0.0,0.0,73,0.00,CLR,,0.00,WeatherDisplay:10.37,2013-02-21 12:21:00,
2013-02-21 07:26:00,27.1,19.6,30.21,SE,135,0.0,1.3,73,0.00,CLR,,0.00,WeatherDisplay:10.37,2013-02-21 12:26:00,
2013-02-21 07:31:00,27.1,19.3,30.21,NE,45,1.1,0.0,72,0.00,CLR,,0.00,WeatherDisplay:10.37,2013-02-21 12:31:00,
2013-02-21 07:36:00,27.3,19.5,30.21,North,0,0.0,0.0,72,0.00,CLR,,0.00,WeatherDisplay:10.37,2013-02-21 12:36:00,
2013-02-21 07:41:00,27.5,19.7,30.21,NE,45,2.3,2.3,72,0.00,CLR,,0.00,WeatherDisplay:10.37,2013-02-21 12:41:00,
2013-02-21 07:46:00,28.0,19.8,30.22,NE,45,4.6,4.6,71,0.00,CLR,,0.00,WeatherDisplay:10.37,2013-02-21 12:46:00,
2013-02-21 07:51:00,28.4,21.5,30.22,North,0,2.3,0.0,75,0.00,CLR,,0.00,WeatherDisplay:10.37,2013-02-21 12:51:00,
2013-02-21 07:56:00,28.6,21.7,30.22,NE,45,8.1,8.1,75,0.00,CLR,,0.00,WeatherDisplay:10.37,2013-02-21 12:56:00,
2013-02-21 08:01:00,29.1,21.9,30.22,North,0,2.3,2.3,74,0.00,CLR,,0.00,WeatherDisplay:10.37,2013-02-21 13:01:00,
2013-02-21 08:06:00,29.5,21.9,30.22,North,0,4.6,0.0,73,0.00,CLR,,0.00,WeatherDisplay:10.37,2013-02-21 13:06:00,
2013-02-21 08:11:00,29.8,22.2,30.21,North,0,4.6,4.6,73,0.00,CLR,,0.00,WeatherDisplay:10.37,2013-02-21 13:11:00,
2013-02-21 08:16:00,30.7,22.4,30.22,North,0,8.1,8.1,71,0.00,CLR,,0.00,WeatherDisplay:10.37,2013-02-21 13:16:00,
2013-02-21 08:21:00,31.5,22.5,30.21,North,0,6.9,6.9,69,0.00,CLR,,0.00,WeatherDisplay:10.37,2013-02-21 13:21:00,
2013-02-21 08:26:00,31.8,22.5,30.21,North,0,11.5,11.5,68,0.00,CLR,,0.00,WeatherDisplay:10.37,2013-02-21 13:26:00,
2013-02-21 08:31:00,32.2,21.7,30.22,NE,45,6.9,6.9,65,0.00,CLR,,0.00,WeatherDisplay:10.37,2013-02-21 13:31:00,
2013-02-21 08:36:00,32.7,22.2,30.22,NNE,22,5.8,5.8,65,0.00,CLR,,0.00,WeatherDisplay:10.37,2013-02-21 13:36:00,
2013-02-21 08:41:00,32.9,22.4,30.22,NE,45,4.6,4.6,65,0.00,CLR,,0.00,WeatherDisplay:10.37,2013-02-21 13:41:00,
2013-02-21 08:46:00,33.3,22.8,30.22,NW,315,5.8,5.8,65,0.00,CLR,,0.00,WeatherDisplay:10.37,2013-02-21 13:46:00,
2013-02-21 08:51:00,33.4,22.6,30.22,North,0,8.4,8.4,64,0.00,CLR,,0.00,WeatherDisplay:10.37,2013-02-21 13:51:00,
2013-02-21 08:56:00,33.8,22.1,30.22,WNW,292,11.5,11.5,62,0.00,CLR,,0.00,WeatherDisplay:10.37,2013-02-21 13:56:00,
2013-02-21 09:01:00,34.2,22.5,30.22,North,0,12.7,12.7,62,0.00,CLR,,0.00,WeatherDisplay:10.37,2013-02-21 14:01:00,
2013-02-21 09:06:00,34.3,22.7,30.22,North,0,10.4,10.4,62,0.00,CLR,,0.00,WeatherDisplay:10.37,2013-02-21 14:06:00,
2013-02-21 09:11:00,34.5,22.4,30.23,NW,315,4.6,4.6,61,0.00,CLR,,0.00,WeatherDisplay:10.37,2013-02-21 14:11:00,
2013-02-21 09:16:00,34.9,22.8,30.24,NW,315,8.1,8.1,61,0.00,CLR,,0.00,WeatherDisplay:10.37,2013-02-21 14:16:00,
2013-02-21 09:21:00,35.2,22.7,30.23,NNW,338,12.7,12.7,60,0.00,CLR,,0.00,WeatherDisplay:10.37,2013-02-21 14:21:00,
2013-02-21 09:26:00,35.6,22.7,30.24,North,0,8.1,8.1,59,0.00,CLR,,0.00,WeatherDisplay:10.37,2013-02-21 14:26:00,
2013-02-21 09:31:00,35.8,22.4,30.23,North,0,6.9,6.9,58,0.00,CLR,,0.00,WeatherDisplay:10.37,2013-02-21 14:31:00,
2013-02-21 09:36:00,35.6,21.4,30.23,North,0,8.1,8.1,56,0.00,CLR,,0.00,WeatherDisplay:10.37,2013-02-21 14:36:00,
2013-02-21 09:41:00,36.0,22.2,30.22,East,90,5.8,5.8,57,0.00,CLR,,0.00,WeatherDisplay:10.37,2013-02-21 14:41:00,
2013-02-21 09:46:00,36.1,22.4,30.22,NE,45,10.4,10.4,57,0.00,CLR,,0.00,WeatherDisplay:10.37,2013-02-21 14:46:00,
2013-02-21 09:51:00,36.3,22.1,30.22,NE,45,8.1,8.1,56,0.00,CLR,,0.00,WeatherDisplay:10.37,2013-02-21 14:51:00,
2013-02-21 09:56:00,36.7,22.0,30.22,NE,45,6.9,6.9,55,0.00,CLR,,0.00,WeatherDisplay:10.37,2013-02-21 14:56:00,
2013-02-21 10:01:00,37.0,22.4,30.22,NE,45,6.9,7.0,55,0.00,CLR,,0.00,WeatherDisplay:10.37,2013-02-21 15:01:00,
2013-02-21 10:06:00,37.2,22.1,30.21,NW,315,6.9,6.9,54,0.00,CLR,,0.00,WeatherDisplay:10.37,2013-02-21 15:06:00,
2013-02-21 10:11:00,37.6,24.5,30.21,NE,45,6.9,6.9,59,0.00,CLR,,0.00,WeatherDisplay:10.37,2013-02-21 15:11:00,
2013-02-21 10:16:00,38.1,24.6,30.21,NNW,338,12.7,12.7,58,0.00,CLR,,0.00,WeatherDisplay:10.37,2013-02-21 15:16:00,
2013-02-21 10:21:00,38.3,24.8,30.21,West,270,10.4,10.4,58,0.00,CLR,,0.00,WeatherDisplay:10.37,2013-02-21 15:21:00,
2013-02-21 10:26:00,38.7,25.6,30.21,East,90,6.9,6.9,59,0.00,CLR,,0.00,WeatherDisplay:10.37,2013-02-21 15:26:00,
2013-02-21 10:31:00,39.2,25.6,30.21,NNE,22,8.4,8.4,58,0.00,CLR,,0.00,WeatherDisplay:10.37,2013-02-21 15:31:00,
2013-02-21 10:36:00,39.4,25.4,30.20,NE,45,5.8,5.8,57,0.00,CLR,,0.00,WeatherDisplay:10.37,2013-02-21 15:36:00,
2013-02-21 10:41:00,40.1,26.1,30.20,NE,45,2.3,2.7,57,0.00,CLR,,0.00,WeatherDisplay:10.37,2013-02-21 15:41:00,
2013-02-21 10:46:00,40.8,26.7,30.20,NW,315,4.6,4.6,57,0.00,CLR,,0.00,WeatherDisplay:10.37,2013-02-21 15:46:00,
2013-02-21 10:51:00,41.5,26.6,30.19,SW,225,10.4,10.4,55,0.00,CLR,,0.00,WeatherDisplay:10.37,2013-02-21 15:51:00,
2013-02-21 10:56:00,42.1,26.6,30.20,NE,45,10.4,10.4,54,0.00,CLR,,0.00,WeatherDisplay:10.37,2013-02-21 15:56:00,
2013-02-21 11:01:00,42.3,26.8,30.19,ESE,112,4.6,4.6,54,0.00,CLR,,0.00,WeatherDisplay:10.37,2013-02-21 16:01:00,
2013-02-21 11:06:00,42.4,26.5,30.19,NE,45,6.9,6.9,53,0.00,CLR,,0.00,WeatherDisplay:10.37,2013-02-21 16:06:00,
2013-02-21 11:11:00,43.0,27.0,30.18,North,0,2.3,2.3,53,0.00,CLR,,0.00,WeatherDisplay:10.37,2013-02-21 16:11:00,
2013-02-21 11:16:00,43.9,27.4,30.18,North,0,8.4,8.4,52,0.00,CLR,,0.00,WeatherDisplay:10.37,2013-02-21 16:16:00,
2013-02-21 11:21:00,44.4,27.9,30.18,NW,315,8.1,8.1,52,0.00,CLR,,0.00,WeatherDisplay:10.37,2013-02-21 16:21:00,
2013-02-21 11:26:00,45.1,28.1,30.18,South,180,11.5,11.5,51,0.00,CLR,,0.00,WeatherDisplay:10.37,2013-02-21 16:26:00,
2013-02-21 11:31:00,45.3,28.2,30.17,SE,135,6.9,6.9,51,0.00,CLR,,0.00,WeatherDisplay:10.37,2013-02-21 16:31:00,
2013-02-21 11:36:00,45.1,27.1,30.17,North,0,10.4,10.4,49,0.00,CLR,,0.00,WeatherDisplay:10.37,2013-02-21 16:36:00,
2013-02-21 11:41:00,45.3,27.3,30.17,NE,45,10.4,10.4,49,0.00,CLR,,0.00,WeatherDisplay:10.37,2013-02-21 16:41:00,
2013-02-21 11:46:00,46.4,28.3,30.17,NE,45,8.1,8.1,49,0.00,CLR,,0.00,WeatherDisplay:10.37,2013-02-21 16:46:00,
2013-02-21 11:51:00,47.1,27.9,30.16,North,0,11.5,11.5,47,0.00,CLR,,0.00,WeatherDisplay:10.37,2013-02-21 16:51:00,
2013-02-21 11:56:00,47.8,28.6,30.16,North,0,10.4,10.4,47,0.00,CLR,,0.00,WeatherDisplay:10.37,2013-02-21 16:56:00,
2013-02-21 12:01:00,48.6,28.7,30.16,South,180,10.4,10.4,46,0.00,CLR,,0.00,WeatherDisplay:10.37,2013-02-21 17:01:00,
2013-02-21 12:06:00,48.6,28.2,30.15,NNW,338,11.5,11.5,45,0.00,CLR,,0.00,WeatherDisplay:10.37,2013-02-21 17:06:00,
2013-02-21 12:11:00,49.3,28.3,30.14,NE,45,6.9,6.9,44,0.00,CLR,,0.00,WeatherDisplay:10.37,2013-02-21 17:11:00,
2013-02-21 12:16:00,49.8,29.3,30.14,SSW,202,8.1,8.1,45,0.00,CLR,,0.00,WeatherDisplay:10.37,2013-02-21 17:16:00,
2013-02-21 12:21:00,50.0,28.4,30.15,South,180,6.9,6.9,43,0.00,CLR,,0.00,WeatherDisplay:10.37,2013-02-21 17:21:00,
2013-02-21 12:26:00,50.2,28.5,30.14,East,90,5.8,5.8,43,0.00,CLR,,0.00,WeatherDisplay:10.37,2013-02-21 17:26:00,
2013-02-21 12:31:00,50.4,28.1,30.14,NNE,22,10.4,10.4,42,0.00,CLR,,0.00,WeatherDisplay:10.37,2013-02-21 17:31:00,
2013-02-21 12:36:00,50.2,27.4,30.13,West,270,5.8,5.8,41,0.00,CLR,,0.00,WeatherDisplay:10.37,2013-02-21 17:36:00,
2013-02-21 12:41:00,50.4,27.5,30.13,NE,45,8.1,8.1,41,0.00,CLR,,0.00,WeatherDisplay:10.37,2013-02-21 17:41:00,
2013-02-21 12:46:00,50.0,28.4,30.13,NW,315,7.0,7.0,43,0.00,CLR,,0.00,WeatherDisplay:10.37,2013-02-21 17:46:00,
2013-02-21 12:51:00,50.5,28.8,30.13,North,0,11.5,11.5,43,0.00,CLR,,0.00,WeatherDisplay:10.37,2013-02-21 17:51:00,
2013-02-21 12:56:00,51.1,29.3,30.12,North,0,11.4,11.4,43,0.00,CLR,,0.00,WeatherDisplay:10.37,2013-02-21 17:56:00,
2013-02-21 13:01:00,51.3,28.3,30.11,NE,45,5.8,5.8,41,0.00,CLR,,0.00,WeatherDisplay:10.37,2013-02-21 18:01:00,
2013-02-21 13:06:00,51.1,28.8,30.11,NW,315,5.8,5.8,42,0.00,CLR,,0.00,WeatherDisplay:10.37,2013-02-21 18:06:00,
2013-02-21 13:11:00,52.0,29.6,30.11,South,180,5.8,5.8,42,0.00,CLR,,0.00,WeatherDisplay:10.37,2013-02-21 18:11:00,
2013-02-21 13:16:00,52.5,28.2,30.11,SE,135,5.8,5.8,39,0.00,CLR,,0.00,WeatherDisplay:10.37,2013-02-21 18:16:00,
2013-02-21 13:21:00,52.2,27.9,30.10,SW,225,6.9,0.0,39,0.00,CLR,,0.00,WeatherDisplay:10.37,2013-02-21 18:21:00,
2013-02-21 13:26:00,52.2,29.1,30.10,North,0,6.9,6.9,41,0.00,CLR,,0.00,WeatherDisplay:10.37,2013-02-21 18:26:00,
2013-02-21 13:31:00,52.2,28.5,30.10,North,0,6.9,6.9,40,0.00,CLR,,0.00,WeatherDisplay:10.37,2013-02-21 18:31:00,
2013-02-21 13:36:00,52.2,28.5,30.09,NE,45,6.9,6.9,40,0.00,CLR,,0.00,WeatherDisplay:10.37,2013-02-21 18:36:00,
2013-02-21 13:41:00,52.9,29.2,30.09,SE,135,7.0,7.0,40,0.00,CLR,,0.00,WeatherDisplay:10.37,2013-02-21 18:41:00,
2013-02-21 13:46:00,53.2,28.3,30.09,East,90,5.8,5.8,38,0.00,CLR,,0.00,WeatherDisplay:10.37,2013-02-21 18:46:00,
2013-02-21 13:51:00,53.1,28.1,30.09,NE,45,8.1,8.1,38,0.00,CLR,,0.00,WeatherDisplay:10.37,2013-02-21 18:51:00,
2013-02-21 13:56:00,53.1,28.1,30.09,NE,45,10.4,10.4,38,0.00,CLR,,0.00,WeatherDisplay:10.37,2013-02-21 18:56:00,
2013-02-21 14:01:00,53.1,28.1,30.09,West,270,6.9,6.9,38,0.00,CLR,,0.00,WeatherDisplay:10.37,2013-02-21 19:01:00,
2013-02-21 14:06:00,52.7,27.1,30.09,NE,45,8.1,8.1,37,0.00,CLR,,0.00,WeatherDisplay:10.37,2013-02-21 19:06:00,
2013-02-21 14:11:00,52.3,26.8,30.08,NNE,22,2.3,2.7,37,0.00,CLR,,0.00,WeatherDisplay:10.37,2013-02-21 19:11:00,
2013-02-21 14:16:00,52.5,27.6,30.08,North,0,4.6,4.6,38,0.00,CLR,,0.00,WeatherDisplay:10.37,2013-02-21 19:16:00,
2013-02-21 14:21:00,53.2,28.3,30.07,NE,45,10.4,10.4,38,0.00,CLR,,0.00,WeatherDisplay:10.37,2013-02-21 19:21:00,
2013-02-21 14:26:00,53.4,27.1,30.07,South,180,5.8,0.0,36,0.00,CLR,,0.00,WeatherDisplay:10.37,2013-02-21 19:26:00,
2013-02-21 14:31:00,53.6,27.9,30.07,NNE,22,4.6,4.6,37,0.00,CLR,,0.00,WeatherDisplay:10.37,2013-02-21 19:31:00,
2013-02-21 14:36:00,53.8,26.7,30.07,NE,45,5.8,5.8,35,0.00,CLR,,0.00,WeatherDisplay:10.37,2013-02-21 19:36:00,
2013-02-21 14:41:00,53.6,25.9,30.06,North,0,6.9,6.9,34,0.00,CLR,,0.00,WeatherDisplay:10.37,2013-02-21 19:41:00,
2013-02-21 14:46:00,53.2,26.3,30.06,North,0,6.9,0.0,35,0.00,CLR,,0.00,WeatherDisplay:10.37,2013-02-21 19:46:00,
2013-02-21 14:51:00,53.2,26.9,30.05,East,90,6.9,6.9,36,0.00,CLR,,0.00,WeatherDisplay:10.37,2013-02-21 19:51:00,
2013-02-21 14:56:00,53.4,27.1,30.04,North,0,4.6,4.6,36,0.00,CLR,,0.00,WeatherDisplay:10.37,2013-02-21 19:56:00,
2013-02-21 15:01:00,53.4,27.8,30.04,North,0,5.8,5.8,37,0.00,CLR,,0.00,WeatherDisplay:10.37,2013-02-21 20:01:00,
2013-02-21 15:07:00,53.6,26.6,30.04,ENE,68,7.0,7.0,35,0.00,CLR,,0.00,WeatherDisplay:10.37,2013-02-21 20:07:00,
2013-02-21 15:12:00,53.4,27.8,30.04,North,3,4.6,4.6,37,0.00,CLR,,0.00,WeatherDisplay:10.37,2013-02-21 20:12:00,
2013-02-21 15:17:00,53.2,27.6,30.04,North,0,4.6,4.6,37,0.00,CLR,,0.00,WeatherDisplay:10.37,2013-02-21 20:17:00,
2013-02-21 15:22:00,53.1,27.4,30.04,NE,45,4.6,4.6,37,0.00,CLR,,0.00,WeatherDisplay:10.37,2013-02-21 20:22:00,
2013-02-21 15:27:00,53.1,27.4,30.03,North,0,4.6,4.6,37,0.00,CLR,,0.00,WeatherDisplay:10.37,2013-02-21 20:27:00,
2013-02-21 15:32:00,53.1,27.4,30.03,North,0,5.8,5.8,37,0.00,CLR,,0.00,WeatherDisplay:10.37,2013-02-21 20:32:00,
2013-02-21 15:37:00,53.1,28.1,30.03,East,90,5.8,5.8,38,0.00,CLR,,0.00,WeatherDisplay:10.37,2013-02-21 20:37:00,
2013-02-21 15:42:00,53.2,28.9,30.03,NE,45,2.3,2.3,39,0.00,CLR,,0.00,WeatherDisplay:10.37,2013-02-21 20:42:00,
2013-02-21 15:47:00,53.2,28.9,30.03,East,90,5.8,5.8,39,0.00,CLR,,0.00,WeatherDisplay:10.37,2013-02-21 20:47:00,
2013-02-21 15:52:00,53.2,29.5,30.03,NE,45,5.8,5.8,40,0.00,CLR,,0.00,WeatherDisplay:10.37,2013-02-21 20:52:00,
2013-02-21 15:57:00,53.2,29.5,30.02,East,90,6.9,6.9,40,0.00,CLR,,0.00,WeatherDisplay:10.37,2013-02-21 20:57:00,
2013-02-21 16:02:00,52.9,29.2,30.01,North,0,5.8,5.8,40,0.00,CLR,,0.00,WeatherDisplay:10.37,2013-02-21 21:02:00,
2013-02-21 16:07:00,52.9,29.8,30.00,NE,45,5.8,5.8,41,0.00,CLR,,0.00,WeatherDisplay:10.37,2013-02-21 21:07:00,
2013-02-21 16:12:00,52.9,29.8,29.99,NE,45,5.8,5.8,41,0.00,CLR,,0.00,WeatherDisplay:10.37,2013-02-21 21:12:00,
2013-02-21 16:17:00,52.9,30.4,29.99,NNE,22,5.8,5.8,42,0.00,CLR,,0.00,WeatherDisplay:10.37,2013-02-21 21:17:00,
2013-02-21 16:22:00,52.9,30.4,29.99,North,0,8.1,8.1,42,0.00,CLR,,0.00,WeatherDisplay:10.37,2013-02-21 21:22:00,
2013-02-21 16:27:00,52.7,30.2,29.99,NE,45,4.6,0.0,42,0.00,CLR,,0.00,WeatherDisplay:10.37,2013-02-21 21:27:00,
2013-02-21 16:32:00,52.7,30.2,29.98,NE,45,6.9,6.9,42,0.00,CLR,,0.00,WeatherDisplay:10.37,2013-02-21 21:32:00,
2013-02-21 16:37:00,52.5,30.1,29.98,NE,45,4.6,4.6,42,0.00,CLR,,0.00,WeatherDisplay:10.37,2013-02-21 21:37:00,
2013-02-21 16:42:00,52.5,30.1,29.98,North,0,4.6,0.0,42,0.00,CLR,,0.00,WeatherDisplay:10.37,2013-02-21 21:42:00,
2013-02-21 16:47:00,52.5,30.6,29.99,NE,45,2.3,2.3,43,0.00,CLR,,0.00,WeatherDisplay:10.37,2013-02-21 21:47:00,
2013-02-21 16:52:00,52.3,30.5,29.99,NE,45,2.3,0.0,43,0.00,CLR,,0.00,WeatherDisplay:10.37,2013-02-21 21:52:00,
2013-02-21 16:57:00,52.3,30.5,29.98,NE,45,5.8,5.8,43,0.00,CLR,,0.00,WeatherDisplay:10.37,2013-02-21 21:57:00,
2013-02-21 17:02:00,52.2,30.3,29.98,North,0,2.3,2.3,43,0.00,CLR,,0.00,WeatherDisplay:10.37,2013-02-21 22:02:00,
2013-02-21 17:07:00,52.0,30.7,29.98,NW,315,1.1,0.0,44,0.00,CLR,,0.00,WeatherDisplay:10.37,2013-02-21 22:07:00,
2013-02-21 17:12:00,52.0,30.7,29.98,NE,45,4.6,4.6,44,0.00,CLR,,0.00,WeatherDisplay:10.37,2013-02-21 22:12:00,
2013-02-21 17:17:00,51.8,30.6,29.96,NE,45,4.6,4.6,44,0.00,CLR,,0.00,WeatherDisplay:10.37,2013-02-21 22:17:00,
2013-02-21 17:22:00,51.8,30.6,29.96,NE,45,4.6,4.6,44,0.00,CLR,,0.00,WeatherDisplay:10.37,2013-02-21 22:22:00,
2013-02-21 17:27:00,51.6,31.5,29.96,North,0,4.6,4.6,46,0.00,CLR,,0.00,WeatherDisplay:10.37,2013-02-21 22:27:00,
2013-02-21 17:32:00,51.4,30.8,29.96,NE,45,5.8,5.8,45,0.00,CLR,,0.00,WeatherDisplay:10.37,2013-02-21 22:32:00,
2013-02-21 17:37:00,51.3,31.2,29.96,North,0,2.3,2.3,46,0.00,CLR,,0.00,WeatherDisplay:10.37,2013-02-21 22:37:00,
2013-02-21 17:42:00,51.1,31.0,29.97,North,0,4.6,4.6,46,0.00,CLR,,0.00,WeatherDisplay:10.37,2013-02-21 22:42:00,
2013-02-21 17:47:00,50.5,33.1,29.98,West,270,4.6,4.6,51,0.00,CLR,,0.00,WeatherDisplay:10.37,2013-02-21 22:47:00,
2013-02-21 17:52:00,50.2,33.2,29.99,East,90,0.0,0.0,52,0.00,CLR,,0.00,WeatherDisplay:10.37,2013-02-21 22:52:00,
2013-02-21 17:57:00,50.0,34.5,30.01,SW,225,4.6,4.6,55,0.00,CLR,,0.00,WeatherDisplay:10.37,2013-02-21 22:57:00,
2013-02-21 18:02:00,49.3,35.5,30.01,NE,45,4.6,4.6,59,0.00,CLR,,0.00,WeatherDisplay:10.37,2013-02-21 23:02:00,
2013-02-21 18:07:00,48.2,37.8,30.01,North,0,4.6,4.6,67,0.00,CLR,,0.00,WeatherDisplay:10.37,2013-02-21 23:07:00,
2013-02-21 18:12:00,47.3,38.0,30.01,NW,315,2.7,0.0,70,0.01,RA,,0.01,WeatherDisplay:10.37,2013-02-21 23:12:00,
2013-02-21 18:17:00,46.4,39.2,30.00,North,0,2.3,2.3,76,0.01,RA,,0.01,WeatherDisplay:10.37,2013-02-21 23:17:00,
2013-02-21 18:22:00,45.1,39.3,30.00,North,0,2.3,0.0,80,0.01,,,0.01,WeatherDisplay:10.37,2013-02-21 23:22:00,
2013-02-21 18:27:00,44.8,39.3,30.00,North,0,2.3,2.3,81,0.01,CLR,,0.01,WeatherDisplay:10.37,2013-02-21 23:27:00,
2013-02-21 18:32:00,44.1,39.5,30.00,NE,45,2.3,2.3,84,0.01,CLR,,0.01,WeatherDisplay:10.37,2013-02-21 23:32:00,
2013-02-21 18:37:00,43.9,39.4,30.02,North,0,2.3,2.3,84,0.01,CLR,,0.01,WeatherDisplay:10.37,2013-02-21 23:37:00,
2013-02-21 18:42:00,43.5,39.6,30.03,West,270,2.3,0.0,86,0.01,CLR,,0.01,WeatherDisplay:10.37,2013-02-21 23:42:00,
2013-02-21 18:47:00,43.3,39.4,30.04,SW,225,0.0,0.0,86,0.01,CLR,,0.01,WeatherDisplay:10.37,2013-02-21 23:47:00,
2013-02-21 18:52:00,43.0,39.4,30.04,North,0,0.0,0.0,87,0.02,RA,,0.02,WeatherDisplay:10.37,2013-02-21 23:52:00,
2013-02-21 18:57:00,42.8,39.2,30.04,NE,45,4.6,4.6,87,0.02,RA,,0.02,WeatherDisplay:10.37,2013-02-21 23:57:00,
2013-02-21 19:02:00,42.8,39.2,30.03,NE,45,2.3,2.3,87,0.02,,,0.02,WeatherDisplay:10.37,2013-02-22 00:02:00,
2013-02-21 19:07:00,42.6,39.6,30.02,SW,225,2.3,2.3,89,0.04,RA,,0.04,WeatherDisplay:10.37,2013-02-22 00:07:00,
2013-02-21 19:12:00,42.4,39.1,30.02,NE,45,4.6,4.6,88,0.02,RA,,0.04,WeatherDisplay:10.37,2013-02-22 00:12:00,
2013-02-21 19:17:00,42.4,39.4,30.01,NE,45,5.8,5.8,89,0.02,,,0.04,WeatherDisplay:10.37,2013-02-22 00:17:00,
2013-02-21 19:22:00,42.1,39.1,30.02,North,0,0.0,0.0,89,0.04,RA,,0.05,WeatherDisplay:10.37,2013-02-22 00:22:00,
2013-02-21 19:27:00,41.9,39.2,30.01,North,0,4.6,4.6,90,0.04,RA,,0.05,WeatherDisplay:10.37,2013-02-22 00:27:00,
2013-02-21 19:32:00,41.7,39.6,30.02,North,0,1.1,0.0,92,0.05,RA,,0.06,WeatherDisplay:10.37,2013-02-22 00:32:00,
2013-02-21 19:37:00,41.5,39.4,30.02,East,90,4.6,0.0,92,0.05,RA,,0.06,WeatherDisplay:10.37,2013-02-22 00:37:00,
2013-02-21 19:42:00,41.4,39.2,30.02,East,90,0.0,0.0,92,0.05,,,0.06,WeatherDisplay:10.37,2013-02-22 00:42:00,
2013-02-21 19:47:00,41.4,39.5,30.01,NW,315,2.3,2.3,93,0.06,RA,,0.07,WeatherDisplay:10.37,2013-02-22 00:47:00,
2013-02-21 19:52:00,41.4,39.8,30.00,North,0,4.6,4.6,94,0.05,RA,,0.07,WeatherDisplay:10.37,2013-02-22 00:52:00,
2013-02-21 19:57:00,41.2,39.9,30.01,NW,315,2.3,2.3,95,0.05,,,0.07,WeatherDisplay:10.37,2013-02-22 00:57:00,
2013-02-21 20:02:00,41.2,39.9,30.03,West,270,7.0,7.0,95,0.05,CLR,,0.07,WeatherDisplay:10.37,2013-02-22 01:02:00,
2013-02-21 20:07:00,41.0,39.7,30.06,SW,225,4.6,4.6,95,0.04,CLR,,0.07,WeatherDisplay:10.37,2013-02-22 01:07:00,
2013-02-21 20:12:00,41.0,39.9,30.04,East,90,4.6,4.6,96,0.05,RA,,0.08,WeatherDisplay:10.37,2013-02-22 01:12:00,
2013-02-21 20:17:00,41.0,40.2,30.04,NW,315,2.3,2.3,97,0.07,RA,,0.11,WeatherDisplay:10.37,2013-02-22 01:17:00,
2013-02-21 20:22:00,40.8,40.6,30.05,NW,315,2.3,0.0,99,0.08,RA,,0.13,WeatherDisplay:10.37,2013-02-22 01:22:00,
2013-02-21 20:27:00,40.8,40.6,30.04,East,90,4.6,4.6,99,0.09,RA,,0.14,WeatherDisplay:10.37,2013-02-22 01:27:00,
2013-02-21 20:32:00,40.6,40.4,30.06,SW,225,2.3,0.0,99,0.11,RA,,0.17,WeatherDisplay:10.37,2013-02-22 01:32:00,
2013-02-21 20:37:00,40.6,40.4,30.05,NW,315,4.6,4.6,99,0.12,RA,,0.18,WeatherDisplay:10.37,2013-02-22 01:37:00,
2013-02-21 20:42:00,40.5,40.2,30.06,NE,45,4.6,4.6,99,0.14,RA,,0.20,WeatherDisplay:10.37,2013-02-22 01:42:00,
2013-02-21 20:47:00,40.3,40.0,30.06,East,90,2.3,0.0,99,0.14,RA,,0.21,WeatherDisplay:10.37,2013-02-22 01:47:00,
2013-02-21 20:52:00,40.1,39.8,30.10,West,270,4.6,4.6,99,0.15,RA,,0.22,WeatherDisplay:10.37,2013-02-22 01:52:00,
2013-02-21 20:57:00,40.1,39.8,30.11,East,90,2.3,0.0,99,0.18,RA,,0.25,WeatherDisplay:10.37,2013-02-22 01:57:00,
2013-02-21 21:02:00,40.1,39.8,30.08,East,90,5.8,5.8,99,0.19,RA,,0.26,WeatherDisplay:10.37,2013-02-22 02:02:00,
2013-02-21 21:07:00,40.1,39.8,30.07,East,90,5.8,5.8,99,0.19,RA,,0.26,WeatherDisplay:10.37,2013-02-22 02:07:00,
2013-02-21 21:12:00,39.9,39.7,30.06,East,90,5.8,5.8,99,0.21,RA,,0.30,WeatherDisplay:10.37,2013-02-22 02:12:00,
2013-02-21 21:17:00,39.7,39.5,30.06,NW,315,2.3,2.3,99,0.21,RA,,0.32,WeatherDisplay:10.37,2013-02-22 02:17:00,
2013-02-21 21:22:00,39.7,39.5,30.07,North,0,1.1,0.0,99,0.20,RA,,0.33,WeatherDisplay:10.37,2013-02-22 02:22:00,
2013-02-21 21:27:00,39.7,39.5,30.08,SW,225,0.0,0.0,99,0.20,RA,,0.34,WeatherDisplay:10.37,2013-02-22 02:27:00,
2013-02-21 21:32:00,39.7,39.5,30.07,NE,45,4.6,4.6,99,0.19,RA,,0.35,WeatherDisplay:10.37,2013-02-22 02:32:00,
2013-02-21 21:37:00,39.6,39.3,30.08,NW,315,2.3,0.0,99,0.19,RA,,0.37,WeatherDisplay:10.37,2013-02-22 02:37:00,
2013-02-21 21:42:00,39.6,39.3,30.09,NW,315,2.3,2.3,99,0.17,RA,,0.37,WeatherDisplay:10.37,2013-02-22 02:42:00,
2013-02-21 21:47:00,39.6,39.3,30.09,NE,45,0.0,0.0,99,0.15,,,0.37,WeatherDisplay:10.37,2013-02-22 02:47:00,
2013-02-21 21:52:00,39.6,39.3,30.09,NW,315,0.0,0.0,99,0.15,RA,,0.38,WeatherDisplay:10.37,2013-02-22 02:52:00,
2013-02-21 21:57:00,39.6,39.3,30.09,North,0,0.0,0.0,99,0.14,RA,,0.39,WeatherDisplay:10.37,2013-02-22 02:57:00,
2013-02-21 22:02:00,39.6,39.3,30.09,North,0,2.3,0.0,99,0.14,RA,,0.40,WeatherDisplay:10.37,2013-02-22 03:02:00,
2013-02-21 22:07:00,39.6,39.3,30.08,NE,45,0.0,0.0,99,0.15,RA,,0.41,WeatherDisplay:10.37,2013-02-22 03:07:00,
2013-02-21 22:12:00,39.6,39.3,30.08,North,0,2.3,2.3,99,0.13,RA,,0.43,WeatherDisplay:10.37,2013-02-22 03:12:00,
2013-02-21 22:17:00,39.6,39.3,30.08,North,0,0.0,0.0,99,0.12,RA,,0.44,WeatherDisplay:10.37,2013-02-22 03:17:00,
2013-02-21 22:22:00,39.7,39.5,30.08,North,0,2.3,2.3,99,0.12,RA,,0.45,WeatherDisplay:10.37,2013-02-22 03:22:00,
2013-02-21 22:27:00,39.7,39.5,30.08,North,0,0.0,0.0,99,0.11,RA,,0.45,WeatherDisplay:10.37,2013-02-22 03:27:00,
2013-02-21 22:32:00,39.7,39.5,30.09,NW,315,2.3,0.0,99,0.11,RA,,0.46,WeatherDisplay:10.37,2013-02-22 03:32:00,
2013-02-21 22:37:00,39.7,39.5,30.10,North,0,0.0,0.0,99,0.09,RA,,0.46,WeatherDisplay:10.37,2013-02-22 03:37:00,
2013-02-21 22:42:00,39.7,39.5,30.10,NE,45,1.1,0.0,99,0.11,RA,,0.47,WeatherDisplay:10.37,2013-02-22 03:42:00,
2013-02-21 22:47:00,39.7,39.5,30.10,SE,135,0.0,0.0,99,0.11,RA,,0.47,WeatherDisplay:10.37,2013-02-22 03:47:00,
2013-02-21 22:52:00,39.7,39.5,30.09,East,90,0.0,0.0,99,0.11,RA,,0.48,WeatherDisplay:10.37,2013-02-22 03:52:00,
2013-02-21 22:57:00,39.7,39.5,30.09,NE,45,2.3,0.0,99,0.09,RA,,0.48,WeatherDisplay:10.37,2013-02-22 03:57:00,
2013-02-21 23:02:00,39.7,39.5,30.08,NE,45,1.1,0.0,99,0.11,RA,,0.51,WeatherDisplay:10.37,2013-02-22 04:02:00,
2013-02-21 23:07:00,39.7,39.5,30.08,NE,45,1.1,0.0,99,0.09,RA,,0.51,WeatherDisplay:10.37,2013-02-22 04:07:00,
2013-02-21 23:12:00,39.7,39.5,30.08,East,90,0.0,0.0,99,0.08,,,0.52,WeatherDisplay:10.37,2013-02-22 04:12:00,
2013-02-21 23:17:00,39.7,39.5,30.08,East,90,2.3,2.3,99,0.08,RA,,0.52,WeatherDisplay:10.37,2013-02-22 04:17:00,
2013-02-21 23:22:00,39.7,39.5,30.06,East,90,1.1,0.0,99,0.08,RA,,0.53,WeatherDisplay:10.37,2013-02-22 04:22:00,
2013-02-21 23:27:00,39.7,39.5,30.07,NW,315,4.6,0.0,99,0.08,RA,,0.53,WeatherDisplay:10.37,2013-02-22 04:27:00,
2013-02-21 23:32:00,39.7,39.5,30.06,North,0,6.9,6.9,99,0.08,RA,,0.54,WeatherDisplay:10.37,2013-02-22 04:32:00,
2013-02-21 23:37:00,39.9,39.7,30.05,East,90,7.0,7.0,99,0.08,RA,,0.54,WeatherDisplay:10.37,2013-02-22 04:37:00,
2013-02-21 23:42:00,39.9,39.7,30.06,North,0,2.3,0.0,99,0.08,RA,,0.56,WeatherDisplay:10.37,2013-02-22 04:42:00,
2013-02-21 23:47:00,40.1,39.8,30.04,East,90,8.4,8.4,99,0.08,RA,,0.56,WeatherDisplay:10.37,2013-02-22 04:47:00,
2013-02-21 23:52:00,40.1,39.8,30.03,SE,135,4.6,4.6,99,0.07,CLR,,0.56,WeatherDisplay:10.37,2013-02-22 04:52:00,
2013-02-21 23:57:00,40.1,39.8,30.05,NW,315,4.6,4.6,99,0.07,CLR,,0.56,WeatherDisplay:10.37,2013-02-22 04:57:00,